User: anonymous   Login
Location: Unspecified
(0.0000°N, 0.0000°E)
Time: 11:22:53
(UTC+00:00)
Language:

SCD-1 - Orbit

View from above orbital plane
View from above orbital plane
View from above satellite
View from above satellite

Ground track
Ground track

The orbit data is extracted from the following two-line orbital elements,

1 22490U 93009B   17329.21781461  .00000239  00000-0  15597-4 0  9995
2 22490  24.9712  32.1445 0042773 234.6303 158.5360 14.44506538308916
Epoch (UTC): 25 November 2017 05:13:39
Eccentricity: 0.0042773
inclination: 24.9712°
perigee height: 713 km
apogee height: 774 km
right ascension of ascending node: 32.1445°
argument of perigee: 234.6303°
revolutions per day: 14.44506538
mean anomaly at epoch: 158.5360°
orbit number at epoch: 30891

The dashed part of the orbit path shows where the satellite is in the earth's shadow,  

DLR